Time,TemperatureF,DewpointF,PressureIn,WindDirection,WindDirectionDegrees,WindSpeedMPH,WindSpeedGustMPH,Humidity,HourlyPrecipIn,Conditions,Clouds,dailyrainin,SoftwareType,DateUTC
2013-02-24 00:00:00,14.0,12.0,-100.00,North,0,0.0,3.0,91,-99.99,,,-99.99,,2013-02-24 08:00:00,
2013-02-24 01:00:00,14.0,10.0,-100.00,East,82,1.0,7.0,85,-99.99,,,-99.99,,2013-02-24 09:00:00,
2013-02-24 01:52:00,14.0,10.0,-100.00,East,82,1.0,7.0,85,-99.99,,,-99.99,,2013-02-24 09:52:00,
2013-02-24 02:00:00,19.0,13.0,-100.00,NE,51,2.0,16.0,78,-99.99,,,-99.99,,2013-02-24 10:00:00,
2013-02-24 03:00:00,18.0,12.0,-100.00,SE,134,3.0,15.0,78,-99.99,,,-99.99,,2013-02-24 11:00:00,
2013-02-24 04:00:00,17.0,13.0,-100.00,North,0,0.0,1.0,84,-99.99,,,-99.99,,2013-02-24 12:00:00,
2013-02-24 05:00:00,17.0,13.0,-100.00,North,0,0.0,3.0,85,-99.99,,,-99.99,,2013-02-24 13:00:00,
2013-02-24 06:00:00,20.0,15.0,-100.00,NNE,18,1.0,8.0,82,-99.99,,,-99.99,,2013-02-24 14:00:00,
2013-02-24 06:54:00,20.0,15.0,-100.00,NNE,18,1.0,8.0,82,-99.99,,,-99.99,,2013-02-24 14:54:00,
2013-02-24 07:00:00,21.0,17.0,-100.00,South,180,1.0,7.0,84,-99.99,,,-99.99,,2013-02-24 15:00:00,
2013-02-24 08:00:00,21.0,17.0,-100.00,ENE,73,1.0,6.0,83,-99.99,,,-99.99,,2013-02-24 16:00:00,
2013-02-24 09:00:00,25.0,20.0,-100.00,North,0,0.0,8.0,80,-99.99,,,-99.99,,2013-02-24 17:00:00,
2013-02-24 10:00:00,26.0,20.0,-100.00,North,0,0.0,1.0,79,-99.99,,,-99.99,,2013-02-24 18:00:00,
2013-02-24 11:00:00,27.0,21.0,-100.00,North,-999,0.0,0.0,78,-99.99,,,-99.99,,2013-02-24 19:00:00,
2013-02-24 12:00:00,28.0,22.0,-100.00,East,84,1.0,6.0,77,-99.99,,,-99.99,,2013-02-24 20:00:00,
2013-02-24 13:00:00,29.0,23.0,-100.00,SSE,153,1.0,5.0,78,-99.99,,,-99.99,,2013-02-24 21:00:00,
2013-02-24 14:00:00,30.0,22.0,-100.00,SSW,211,1.0,7.0,71,-99.99,,,-99.99,,2013-02-24 22:00:00,
2013-02-24 15:00:00,28.0,20.0,-100.00,SW,227,3.0,9.0,70,-99.99,,,-99.99,,2013-02-24 23:00:00,
2013-02-24 16:00:00,29.0,14.0,-100.00,SSW,210,8.0,17.0,53,-99.99,,,-99.99,,2013-02-25 00:00:00,
2013-02-24 17:00:00,25.0,16.0,-100.00,SW,217,8.0,14.0,68,-99.99,,,-99.99,,2013-02-25 01:00:00,
2013-02-24 18:00:00,24.0,15.0,-100.00,WSW,253,12.0,23.0,68,-99.99,,,-99.99,,2013-02-25 02:00:00,
2013-02-24 19:00:00,22.0,16.0,-100.00,SW,219,12.0,23.0,77,-99.99,,,-99.99,,2013-02-25 03:00:00,
2013-02-24 20:00:00,22.0,17.0,-100.00,SW,219,15.0,24.0,82,-99.99,,,-99.99,,2013-02-25 04:00:00,
2013-02-24 21:00:00,22.0,17.0,-100.00,WSW,245,18.0,30.0,82,-99.99,,,-99.99,,2013-02-25 05:00:00,
2013-02-24 22:00:00,22.0,19.0,-100.00,WSW,240,17.0,29.0,89,-99.99,,,-99.99,,2013-02-25 06:00:00,
2013-02-24 23:00:00,22.0,20.0,-100.00,WNW,286,13.0,25.0,91,-99.99,,,-99.99,,2013-02-25 07:00:00,
2013-02-24 23:52:00,22.0,20.0,-100.00,WNW,286,13.0,25.0,91,-99.99,,,-99.99,,2013-02-25 07:52:00,